Location: Unspecified
(0.0000°N, 0.0000°E)
Time: 04:34:36
(UTC+00:00)

A-11 Canister half - Pass Details

Date: 19 April 2026
Orbit: 1523 x 1685 km, 47.3° (Epoch: 13 May)

Event Time Altitude Azimuth Distance (km) Brightness Sun altitude
Rises 20:41:27 0° 219° (SW) 4,732 11.8 -39.6°
Reaches altitude 10° 20:44:29 10° 218° (SW) 3,766 11.2 -40.4°
Enters shadow 20:50:11 43° 216° (SW) 2,127 9.7 -41.7°
Maximum altitude 20:54:06 87° 129° (SE) 1,614 - -42.7°
Drops below altitude 10° 21:04:03 10° 40° (NE) 3,886 - -45.1°
Sets 21:07:14 0° 40° (NE) 4,888 - -45.8°
